Notices

What's New in latest Release from April 7th, 2021:

- Updated Glossary, including Speed of Maximum Gust, and Total Hourly Precipitation

- Updated national and regional climate services offices contacts and prices information

- Addition of station inventory lists for 1981-2010, 1971-2000, and 1961-1990 Normals.

If you haven't already, please take our survey and provide feedback about our website: https://eccc.sondage-survey.ca/f/LanguageSelection.aspx?s=442ca660-fcf1-47c0-95a9-59707d6fd709

Hourly Data Report for March 28, 2004

SHERBROOKE A
QUEBEC

45°26'00.000" N
71°41'00.000" W
241.40 m
7028124
71610
YSC

Download Data

Hourly Data (March 2004)
Hourly Data Report for March 28, 2004
TIME
LST
Temp Definition
°C
Dew Point Definition
°C
Rel Hum Definition
%
Precip. Amount Definition
mm

Wind Dir Definition
10's deg

Wind Spd Definition
km/h
Visibility Definition
km
Stn Press Definition
kPa
Hmdx Definition


Wind Chill Definition


Weather Definition


00:00 0.7 -1.8 83   3 9 15.0 100.19      
01:00 0.4 -2.7 80   5 9 15.0 100.18      
02:00 -0.2 -4.0 76   4 15 15.0 100.16   -5  
03:00 -0.8 -4.6 75   4 11 15.0 100.19   -5  
04:00 -1.0 -4.9 75   3 17 15.0 100.24   -6  
05:00 -1.5 -6.0 71   4 15 15.0 100.29   -6  
06:00 -1.6 -6.6 69   5 17 15.0 100.36   -7  
07:00 -0.8 -6.7 64   6 15 15.0 100.43   -5  
08:00 0.7 -5.6 63   6 17 24.1 100.42     Clear
09:00 2.7 -5.1 56   6 19 24.1 100.43     Clear
10:00 4.6 -6.0 46   2 15 24.1 100.43     Clear
11:00 6.6 -8.4 33   6 15 24.1 100.44     Clear
12:00 7.6 -8.7 30   6 9 24.1 100.39     Clear
13:00 8.9 -9.9 25   4 17 24.1 100.36     Clear
14:00 9.7 -9.7 24   5 15 24.1 100.31     Clear
15:00 10.3 -9.0 25   2 11 24.1 100.29     Mainly Clear
16:00 10.2 -7.7 28   1 13 24.1 100.31     Mainly Clear
17:00 9.2 -7.0 31   2 9 24.1 100.29     Mainly Clear
18:00 7.5 -7.0 35   3 7 15.0 100.30      
19:00 6.0 -7.0 39   5 11 15.0 100.29      
20:00 4.1 -6.4 46   6 15 15.0 100.34      
21:00 2.0 -6.1 55   7 13 15.0 100.32      
22:00 0.6 -6.4 59   9 7 15.0 100.31      
23:00 0.0 -6.5 62   9 11 15.0 100.29   -4  

Notes on Data Quality.

Legend

  • E = Estimated
  • M = Missing
  • NA = Not Available*
  • [empty] = Indicates an unobserved value
Date modified: